Flag for Brazil Weather past 2 weeks in Florianópolis, Santa Catarina, Brazil

Now
79 °F

Passing clouds.


Feels Like: 81 °F
Forecast: 75 / 82 °F
Wind: 8 mph from Northeast

Location: Florianopolis Aeroporto

Current Time: Mar 1, 2015 at 11:11:18 PM

Latest Report: Mar 1, 2015 at 10:00 PM


Visibility: N/A

Pressure: 30.09 "Hg

Humidity: 61%

Dew point: 64 °F

Location of FlorianópolisLocation

Historic Weather in Florianópolis — Graph

°F

Florianópolis temperature yesterday

Maximum temperature yesterday: 81 °F (at 11:00 AM)
Minimum temperature yesterday: 73 °F (at 6:00 AM)
Average temperature yesterday: 77 °F

Past Weeks' High & Low Weather Summary

 TemperatureHumidityPressure
High91 °F (Feb 25, 2:00 PM)100% (Feb 18, 5:00 AM)30.15 "Hg (Feb 18, 5:00 AM)
Low68 °F (Mar 1, 5:00 AM)41% (Feb 25, 2:00 PM)29.65 "Hg (Feb 19, 4:00 PM)
Average78 °F77%29.94 "Hg
* Reported Feb 14 11:00 PM — Mar 1 10:00 PM, Florianópolis, Weather by CustomWeather, © 2015

Note: Actual official high and low records may vary slightly from our data, if they occured in-between our weather recording intervals... More about our weather records

Advertising

Florianópolis weather history for previous 24 hours

 ConditionsComfort  
Time TempWeatherWind HumidityBarometerVisibility
10:00 PM
Sun, Mar 1
79 °FPassing clouds.8 mph61%30.09 "HgN/A
9:00 PM77 °FPassing clouds.5 mph65%30.09 "HgN/A
8:00 PM79 °FPassing clouds.6 mph58%30.07 "HgN/A
7:00 PM79 °FPassing clouds.5 mph61%30.07 "HgN/A
6:00 PM81 °FPassing clouds.10 mph58%30.07 "HgN/A
5:00 PM82 °FScattered clouds.12 mph51%30.04 "HgN/A
4:00 PM82 °FScattered clouds.12 mph45%30.07 "HgN/A
3:00 PM82 °FScattered clouds.13 mph48%30.09 "HgN/A
2:00 PM84 °FScattered clouds.9 mph48%30.09 "HgN/A
1:00 PM81 °FScattered clouds.8 mph51%30.12 "HgN/A
12:00 PM82 °FPartly sunny.10 mph51%30.12 "HgN/A
11:00 AM79 °FPartly sunny.6 mph54%30.15 "HgN/A
10:00 AM77 °FScattered clouds.5 mph61%30.15 "HgN/A
9:00 AM73 °FSunny.6 mph74%30.12 "Hg10 mi
8:00 AM72 °FPartly sunny.3 mph78%30.12 "HgN/A
7:00 AM70 °FSunny.2 mph83%30.09 "Hg10 mi
6:00 AM68 °FSunny.7 mph88%30.09 "Hg10 mi
5:00 AM68 °FClear.3 mph88%30.07 "Hg10 mi
4:00 AM70 °FClear.No wind83%30.09 "Hg10 mi
3:00 AM70 °FPassing clouds.6 mph83%30.09 "HgN/A
2:00 AM70 °FPassing clouds.3 mph69%30.09 "HgN/A
1:00 AM70 °FPassing clouds.3 mph78%30.09 "HgN/A
12:00 AM72 °FPassing clouds.5 mph69%30.12 "HgN/A
11:00 PM
Sat, Feb 28
73 °FPassing clouds.2 mph65%30.12 "HgN/A
Weather by CustomWeather, © 2015

See weather overviewHow to use our weather pages